Acerra, Italy

8:58 PM CET on January 19, 2018 (GMT +0100)
Acerra

Weather History for 16289 - August, 2013

Change the Weather History Date:

Sunday, August 11, 2013

  Actual Average Record
Temperature  
Mean Temperature 82 °F -  
Max Temperature 91 °F 83 °F - ()
Min Temperature 73 °F 63 °F - ()
Cooling Degree Days 17    
Growing Degree Days 32 (Base 50)    
Moisture  
Dew Point 61 °F    
Average Humidity 50    
Maximum Humidity 74    
Minimum Humidity 29    
Precipitation  
Precipitation 0.00 in 0.07 in - ()
Sea Level Pressure  
Sea Level Pressure 29.92 in    
Wind  
Wind Speed 6 mph ()    
Max Wind Speed 13 mph    
Max Gust Speed -    
Visibility 6.2 miles    
Events      
T = Trace of Precipitation, MM = Missing Value Source: Averaged Metar Reports

Daily Weather History Graph

Daily Weather History Graph

Search for Another Location

Airport or City:

Trip Planner

Search our weather history database for the weather conditions in past years. The results will help you decide how hot, cold, wet, or windy it might be!

Date:

Astronomy

Aug. 11, 2013 Rise Set
Actual Time 6:08 AM CEST 8:06 PM CEST
Civil Twilight 5:39 AM CEST 8:36 PM CEST
Nautical Twilight 5:02 AM CEST 9:12 PM CEST
Astronomical Twilight 4:23 AM CEST 9:51 PM CEST
Moon 10:41 AM CEST (8/11) 10:09 PM CEST (8/11)
Length of Visible Light 14h 57m
Length of Day
13h 57m
Waxing Crescent, 19% of the Moon is Illuminated
Aug 11
Waxing Crescent
Aug 14
First Quarter
Aug 21
Full
Aug 28
Last Quarter
Sep 5
New

Hourly Weather History & Observations

Time (CEST) Temp. Heat Index Dew Point Humidity Pressure Visibility Wind Dir Wind Speed Gust Speed Precip Events Conditions
12:50 AM 77.0 °F - 59.0 °F 54% 29.92 in - NNE 8.1 mph - N/A   Clear
1:20 AM 77.0 °F - 60.8 °F 57% 29.92 in - NNE 8.1 mph - N/A   Clear
1:50 AM 77.0 °F - 60.8 °F 57% 29.92 in - North 6.9 mph - N/A   Clear
2:20 AM 75.2 °F - 60.8 °F 61% 29.89 in - NNE 6.9 mph - N/A   Clear
2:50 AM 75.2 °F - 60.8 °F 61% 29.89 in - NNE 6.9 mph - N/A   Clear
3:20 AM 75.2 °F - 60.8 °F 61% 29.89 in - North 5.8 mph - N/A   Clear
3:50 AM 73.4 °F - 60.8 °F 65% 29.89 in - North 3.5 mph - N/A   Clear
4:20 AM 75.2 °F - 60.8 °F 61% 29.89 in - North 6.9 mph - N/A   Clear
5:20 AM 73.4 °F - 59.0 °F 61% 29.89 in - NNW 4.6 mph - N/A   Clear
6:20 AM 73.4 °F - 59.0 °F 61% 29.89 in - NNW 4.6 mph - N/A   Clear
6:50 AM 75.2 °F - 59.0 °F 57% 29.92 in - NNW 4.6 mph - N/A   Clear
7:20 AM 77.0 °F - 59.0 °F 54% 29.92 in - NW 3.5 mph - N/A   Clear
7:50 AM 78.8 °F - 59.0 °F 51% 29.92 in - NNW 4.6 mph - N/A   Clear
8:20 AM 80.6 °F 80.8 °F 57.2 °F 45% 29.92 in - North 6.9 mph - N/A   Clear
8:50 AM 80.6 °F 80.8 °F 57.2 °F 45% 29.92 in - NNE 8.1 mph - N/A   Clear
9:20 AM 82.4 °F 82.0 °F 57.2 °F 42% 29.95 in - North 5.8 mph - N/A   Clear
9:50 AM 82.4 °F 82.5 °F 59.0 °F 45% 29.95 in - North 5.8 mph - N/A   Clear
10:20 AM 84.2 °F 83.5 °F 57.2 °F 40% 29.95 in - ENE 5.8 mph - N/A   Clear
10:50 AM 86.0 °F 84.9 °F 57.2 °F 37% 29.95 in - NNE 9.2 mph - N/A   Clear
11:20 AM 86.0 °F 84.9 °F 57.2 °F 37% 29.95 in - NE 8.1 mph - N/A   Clear
11:50 AM 86.0 °F 84.5 °F 55.4 °F 35% 29.95 in - Variable 5.8 mph - N/A   Clear
12:20 PM 89.6 °F 88.1 °F 57.2 °F 33% 29.95 in - ENE 4.6 mph - N/A   Clear
12:50 PM 89.6 °F 88.1 °F 57.2 °F 33% 29.92 in - Variable 5.8 mph - N/A   Clear
1:20 PM 89.6 °F 87.7 °F 55.4 °F 31% 29.92 in - Variable 4.6 mph - N/A   Clear
1:50 PM 91.4 °F 89.4 °F 55.4 °F 29% 29.92 in - NNW 5.8 mph - N/A   Clear
2:20 PM 91.4 °F 89.9 °F 57.2 °F 31% 29.92 in - Variable 5.8 mph - N/A   Clear
2:50 PM 91.4 °F 89.4 °F 55.4 °F 29% 29.92 in - Variable 4.6 mph - N/A   Clear
3:20 PM 91.4 °F 89.4 °F 55.4 °F 29% 29.89 in - North 5.8 mph - N/A   Clear
3:50 PM 91.4 °F 89.4 °F 55.4 °F 29% 29.89 in - North 8.1 mph - N/A   Clear
4:20 PM 91.4 °F 90.7 °F 59.0 °F 34% 29.89 in 6.2 mi NW 4.6 mph - N/A   Partly Cloudy
4:50 PM 89.6 °F 88.9 °F 59.0 °F 36% 29.89 in 6.2 mi West 11.5 mph - N/A   Partly Cloudy
5:20 PM 87.8 °F 87.6 °F 60.8 °F 40% 29.89 in - WNW 11.5 mph - N/A   Clear
5:50 PM 87.8 °F 88.5 °F 62.6 °F 43% 29.89 in - WNW 12.7 mph - N/A   Clear
6:20 PM 86.0 °F 87.3 °F 64.4 °F 48% 29.89 in - WNW 11.5 mph - N/A   Clear
6:50 PM 84.2 °F 85.6 °F 64.4 °F 51% 29.89 in - West 12.7 mph - N/A   Clear
7:20 PM 82.4 °F 83.9 °F 64.4 °F 54% 29.89 in - WNW 10.4 mph - N/A   Clear
7:50 PM 82.4 °F 84.6 °F 66.2 °F 58% 29.92 in - WNW 11.5 mph - N/A   Clear
8:20 PM 80.6 °F 83.2 °F 68.0 °F 65% 29.92 in - WNW 9.2 mph - N/A   Clear
8:50 PM 80.6 °F 83.2 °F 68.0 °F 65% 29.92 in - NW 6.9 mph - N/A   Clear
9:20 PM 80.6 °F 83.9 °F 69.8 °F 70% 29.95 in - NW 4.6 mph - N/A   Clear
9:50 PM 80.6 °F 83.9 °F 69.8 °F 70% 29.95 in - NW 5.8 mph - N/A   Clear
10:20 PM 78.8 °F - 69.8 °F 74% 29.95 in - NW 3.5 mph - N/A   Clear
10:50 PM 78.8 °F - 69.8 °F 74% 29.95 in - Variable 2.3 mph - N/A   Clear
11:20 PM 78.8 °F - 69.8 °F 74% 29.95 in - Variable 2.3 mph - N/A   Clear
11:50 PM 78.8 °F - 69.8 °F 74% 29.95 in - Variable 2.3 mph - N/A   Clear